Weather reports worldwide

Advertisment
Bozeman, mt, United States of America (2072079): temperature & dewpoint: 11.07.2019 23:00:00 - 17.07.2019 23:00:00 (MDT)Bozeman, mt, United States of America (2072079): wind speed & gusts: 11.07.2019 23:00:00 - 17.07.2019 23:00:00 (MDT)Bozeman, mt, United States of America (2072079): wind direction: 11.07.2019 23:00:00 - 17.07.2019 23:00:00 (MDT)Bozeman, mt, United States of America (2072079): reduced air pressure: 11.07.2019 23:00:00 - 17.07.2019 23:00:00 (MDT)Bozeman, mt, United States of America (2072079): visibility: 11.07.2019 23:00:00 - 17.07.2019 23:00:00 (MDT)Bozeman, mt, United States of America (2072079): precipitation: 11.07.2019 23:00:00 - 17.07.2019 23:00:00 (MDT)
Date & Time tt [°C] td [°C] ff [km/h] ff [kn] fx [km/h] fx [kn] dd ppp [hPa] vv [km] rr [mm]
17.07.2019 23:00:00 17,8 13,3 0 0 - - N 1008,8 16 -
17.07.2019 22:00:00 17,8 13,3 5 3 - - NW 1008,1 16 -
17.07.2019 21:00:00 21,7 10,0 0 0 - - N 1007,0 16 -
17.07.2019 20:00:00 21,1 11,7 8 4 - - SE 1007,3 16 -
17.07.2019 19:00:00 22,2 11,1 9 5 - - ENE 1007,5 16 -
17.07.2019 18:00:00 23,3 8,3 8 4 - - ENE 1008,3 16 -
17.07.2019 17:00:00 22,8 9,4 13 7 - - N 1008,7 16 -
17.07.2019 16:00:00 22,2 11,1 11 6 - - NNE 1009,7 16 -
17.07.2019 15:00:00 22,2 12,8 16 9 - - N 1010,3 16 -
17.07.2019 14:00:00 23,9 10,6 15 8 - - W 1009,9 16 -
17.07.2019 13:00:00 22,2 11,1 5 3 - - - 1011,0 16 -
17.07.2019 12:00:00 20,0 11,7 0 0 - - N 1011,7 16 -
17.07.2019 11:00:00 18,3 11,7 0 0 - - N 1012,3 16 -
17.07.2019 10:00:00 17,2 10,6 0 0 - - N 1012,8 16 -
17.07.2019 09:00:00 15,0 10,0 5 3 - - - 1013,7 16 -
17.07.2019 08:00:00 12,2 9,4 5 3 - - SSE 1014,3 16 -
17.07.2019 07:00:00 11,7 9,4 9 5 - - SSE 1013,8 16 -
17.07.2019 06:00:00 10,6 9,4 9 5 - - SE 1013,5 16 -
17.07.2019 05:00:00 11,7 10,6 8 4 - - SSE 1013,5 16 -
17.07.2019 04:00:00 11,7 11,1 8 4 - - E 1013,0 16 -
17.07.2019 03:00:00 11,7 10,6 8 4 - - WSW 1012,1 16 -
17.07.2019 02:00:00 12,8 11,7 13 7 - - NNE 1012,8 16 -
17.07.2019 01:00:00 13,3 12,2 16 9 - - SSE 1012,6 16 0,0
17.07.2019 00:00:00 14,4 12,2 22 12 - - SSW 1013,7 16 0,0
16.07.2019 23:00:00 13,9 12,8 22 12 - - ENE 1013,3 16 1,3
16.07.2019 22:00:00 15,6 12,8 13 7 - - NNW 1013,7 16 0,8
16.07.2019 21:00:00 15,6 12,2 9 5 - - NNW 1012,7 16 -
16.07.2019 20:00:00 16,1 12,8 9 5 - - SSW 1012,3 16 0,0
16.07.2019 19:00:00 16,7 11,7 9 5 - - SE 1012,8 10 2,3
16.07.2019 18:00:00 17,8 12,2 18 10 - - SSE 1012,3 16 -
16.07.2019 17:00:00 16,7 12,8 22 12 54 29 SE 1011,2 16 1,0
16.07.2019 16:00:00 18,3 13,3 26 14 - - S 1013,1 16 1,3
16.07.2019 15:00:00 22,2 11,1 0 0 - - N 1011,3 16 -
16.07.2019 14:00:00 22,8 11,7 9 5 - - NW 1011,5 16 -
16.07.2019 13:00:00 22,2 12,2 9 5 - - NNE 1012,0 16 -
16.07.2019 12:00:00 20,6 13,3 5 3 - - - 1013,0 16 -
16.07.2019 11:00:00 19,4 12,2 0 0 - - N 1013,6 16 -
16.07.2019 10:00:00 18,3 12,8 0 0 - - N 1014,1 16 -
16.07.2019 09:00:00 16,1 12,8 0 0 - - N 1014,1 16 -
16.07.2019 08:00:00 15,6 12,2 0 0 - - N 1014,4 16 -
16.07.2019 07:00:00 12,8 11,7 0 0 - - N 1014,7 16 0,3
16.07.2019 06:00:00 12,2 11,1 5 3 - - ENE 1014,8 16 0,0
16.07.2019 05:00:00 13,9 12,8 11 6 - - SSW 1014,9 16 0,0
16.07.2019 04:00:00 13,9 13,3 9 5 - - SSW 1015,1 10 0,3
16.07.2019 03:00:00 14,4 12,2 18 10 55 30 W 1014,1 8 1,0
16.07.2019 02:00:00 14,4 12,2 16 9 - - S 1012,8 16 -
16.07.2019 01:00:00 15,0 13,9 21 11 - - ESE 1014,2 16 1,8
16.07.2019 00:00:00 15,6 13,9 16 9 - - W 1016,3 8 1,0
15.07.2019 23:00:00 16,7 12,8 11 6 - - SSW 1015,4 16 -
15.07.2019 22:00:00 16,7 12,8 8 4 - - E 1015,4 16 0,0
15.07.2019 21:00:00 18,9 11,1 8 4 - - S 1014,9 16 -
15.07.2019 20:00:00 18,9 11,7 11 6 - - - 1014,2 16 -
15.07.2019 19:00:00 20,6 11,1 15 8 - - SE 1014,0 16 -
15.07.2019 18:00:00 19,4 12,2 28 15 - - N 1014,5 16 0,0
15.07.2019 17:00:00 21,1 11,1 26 14 54 29 SSE 1013,8 16 0,0
15.07.2019 16:00:00 25,0 8,3 24 13 - - S 1012,7 16 0,0
15.07.2019 15:00:00 27,2 7,8 16 9 - - WNW 1012,3 16 -
15.07.2019 14:00:00 26,7 8,9 21 11 - - NNW 1013,6 16 -
15.07.2019 13:00:00 26,1 7,8 9 5 - - - 1014,4 16 -
15.07.2019 12:00:00 23,9 11,7 11 6 - - NNE 1015,3 16 -
15.07.2019 11:00:00 22,8 11,7 5 3 - - - 1015,7 16 -
15.07.2019 10:00:00 20,0 10,6 5 3 - - - 1016,3 16 -
15.07.2019 09:00:00 18,3 11,7 9 5 - - S 1017,3 16 -
15.07.2019 08:00:00 16,1 11,7 5 3 - - S 1017,8 16 -
15.07.2019 07:00:00 13,3 11,7 0 0 - - N 1017,3 16 -
15.07.2019 06:00:00 13,3 10,6 9 5 - - S 1017,1 16 -
15.07.2019 05:00:00 12,8 11,1 9 5 - - S 1017,0 16 -
15.07.2019 04:00:00 13,3 11,1 8 4 - - NE 1016,6 16 -
15.07.2019 03:00:00 15,6 11,1 13 7 - - SSE 1015,5 16 0,3
15.07.2019 02:00:00 14,4 12,2 15 8 - - SSE 1015,8 16 -
15.07.2019 01:00:00 16,1 13,3 0 0 - - N 1015,7 16 -
15.07.2019 00:00:00 16,7 12,8 5 3 - - SE 1014,8 16 0,0
14.07.2019 23:00:00 16,7 12,8 11 6 - - WNW 1014,4 16 0,0
14.07.2019 22:00:00 20,6 12,2 11 6 - - S 1013,2 16 -
14.07.2019 21:00:00 19,4 12,2 9 5 - - SE 1013,0 16 -
14.07.2019 20:00:00 21,1 13,9 8 4 - - N 1011,8 16 -
14.07.2019 19:00:00 26,1 8,9 5 3 - - SW 1011,5 16 -
14.07.2019 18:00:00 20,6 10,6 31 17 63 34 SSE 1013,7 16 0,0
14.07.2019 17:00:00 23,3 8,9 31 17 76 41 S 1013,4 16 0,0
14.07.2019 16:00:00 27,2 13,9 22 12 - - SW 1011,8 16 -
14.07.2019 15:00:00 28,9 13,3 11 6 - - N 1012,3 16 -
14.07.2019 14:00:00 27,8 12,2 8 4 - - - 1013,8 16 -
14.07.2019 13:00:00 25,0 12,2 0 0 - - N 1014,8 16 -
14.07.2019 12:00:00 24,4 13,3 5 3 - - N 1015,9 16 -
14.07.2019 11:00:00 22,2 13,3 8 4 - - WNW 1016,5 16 -
14.07.2019 10:00:00 20,0 12,8 5 3 - - WSW 1017,3 16 -
14.07.2019 09:00:00 17,8 12,8 5 3 - - ESE 1018,0 16 -
14.07.2019 08:00:00 16,1 12,2 11 6 - - S 1017,7 16 -
14.07.2019 07:00:00 14,4 11,7 0 0 - - N 1017,3 16 -
14.07.2019 06:00:00 11,7 10,6 9 5 - - NW 1016,3 16 -
14.07.2019 05:00:00 13,9 11,7 15 8 - - S 1013,9 16 -
14.07.2019 04:00:00 13,3 11,7 11 6 - - SSE 1014,7 16 -
14.07.2019 03:00:00 15,0 11,7 5 3 - - NW 1015,9 16 -
14.07.2019 02:00:00 15,0 12,8 0 0 - - N 1015,5 16 -
14.07.2019 01:00:00 15,6 12,2 8 4 - - ENE 1015,1 16 -
14.07.2019 00:00:00 16,1 12,8 15 8 - - SSE 1015,3 16 -
13.07.2019 23:00:00 18,3 12,2 18 10 - - S 1014,0 16 -
13.07.2019 22:00:00 17,8 12,2 21 11 - - S 1013,8 16 0,0
13.07.2019 21:00:00 17,8 12,8 31 17 61 33 SSE 1015,7 16 0,3
13.07.2019 20:00:00 17,8 13,3 18 10 57 31 S 1015,8 16 0,3
13.07.2019 19:00:00 17,8 12,8 16 9 57 31 ESE 1016,7 16 3,6
13.07.2019 18:00:00 16,7 12,8 37 20 57 31 N 1018,5 8 3,6
13.07.2019 17:00:00 26,7 13,3 16 9 - - NW 1012,7 16 -
13.07.2019 16:00:00 27,8 13,3 11 6 - - S 1012,1 16 -
13.07.2019 15:00:00 24,4 15,0 11 6 - - E 1014,1 16 0,0
13.07.2019 14:00:00 22,8 13,9 21 11 - - N 1015,5 16 0,0
13.07.2019 13:00:00 27,2 12,2 11 6 - - - 1012,0 16 -
13.07.2019 12:00:00 26,1 13,3 5 3 - - - 1013,1 16 -
13.07.2019 11:00:00 23,9 12,2 0 0 - - N 1013,8 16 -
13.07.2019 10:00:00 20,6 13,3 0 0 - - N 1015,1 16 -
13.07.2019 09:00:00 17,8 11,1 0 0 - - N 1015,8 16 -
13.07.2019 08:00:00 15,0 11,7 0 0 - - N 1016,0 16 -
13.07.2019 07:00:00 13,3 11,1 0 0 - - N 1015,9 16 -
13.07.2019 06:00:00 11,1 9,4 0 0 - - N 1015,2 16 -
13.07.2019 05:00:00 10,6 9,4 9 5 - - SE 1014,9 16 -
13.07.2019 04:00:00 13,3 11,1 0 0 - - N 1014,0 16 -
13.07.2019 03:00:00 13,3 11,1 5 3 - - N 1013,9 16 -
13.07.2019 02:00:00 15,0 11,7 8 4 - - SSW 1014,0 16 0,0
13.07.2019 01:00:00 17,8 11,7 0 0 - - N 1014,2 16 0,0
13.07.2019 00:00:00 17,8 12,2 18 10 - - NNE 1014,4 16 0,0
12.07.2019 23:00:00 19,4 10,6 13 7 - - WNW 1013,4 16 0,0
12.07.2019 22:00:00 19,4 11,1 0 0 - - N 1014,1 16 -
12.07.2019 21:00:00 18,9 12,2 8 4 - - NW 1014,1 16 -
12.07.2019 20:00:00 21,7 10,6 11 6 - - E 1013,3 16 0,0
12.07.2019 19:00:00 20,6 11,7 29 16 68 37 NE 1013,1 16 0,0
12.07.2019 18:00:00 23,3 9,4 52 28 68 37 SSW 1012,9 16 0,0
12.07.2019 17:00:00 28,9 10,0 9 5 - - NNW 1011,6 16 -
12.07.2019 16:00:00 31,1 10,6 15 8 - - NNW 1011,9 16 -
12.07.2019 15:00:00 30,0 11,1 15 8 - - N 1012,9 16 -
12.07.2019 14:00:00 28,3 12,2 9 5 - - N 1014,0 16 -
12.07.2019 13:00:00 27,8 13,3 8 4 - - - 1014,8 16 -
12.07.2019 12:00:00 25,6 12,2 5 3 - - - 1015,5 16 -
12.07.2019 11:00:00 23,9 12,8 0 0 - - N 1015,9 16 -
12.07.2019 10:00:00 21,1 12,8 5 3 - - SSE 1016,9 16 -
12.07.2019 09:00:00 18,9 12,2 5 3 - - ESE 1017,1 16 -
12.07.2019 08:00:00 16,7 12,2 8 4 - - SSE 1017,3 16 -
12.07.2019 07:00:00 14,4 11,1 8 4 - - SE 1017,0 16 -
12.07.2019 06:00:00 11,7 10,6 5 3 - - SE 1016,7 16 -
12.07.2019 05:00:00 12,2 10,0 9 5 - - ESE 1015,4 16 -
12.07.2019 04:00:00 13,9 10,6 8 4 - - S 1015,2 16 -
12.07.2019 03:00:00 15,0 12,8 11 6 - - S 1015,1 16 -
12.07.2019 02:00:00 15,6 12,8 8 4 - - WSW 1015,0 16 -
12.07.2019 01:00:00 16,1 12,2 9 5 - - NW 1015,0 16 -
12.07.2019 00:00:00 16,7 13,3 0 0 - - N 1014,7 16 -
11.07.2019 23:00:00 18,9 13,9 8 4 - - SSW 1014,4 16 -

tt = temperature
td = dewpoint
ff = wind speed
fx = gusts
dd = wind direction
ppp = reduced air pressure
vv = visibility
rr = precipitation

Next stations